Погода в Беной-Ведено

Россия / Чеченская Республика     42°57′15″N   46°17′04″E
темп.,
°C
ветер,
м/с
пор.,
м/с
влажн.,
%
обл.,
%
осадки,
мм/ч
давл.,
гПа
погр.,
м
8 августа, пн
пн800:00+16ююв239695 4.8 101267
03:00+16ю2192100 7.4 101223
06:00+16юз119199 1.7 101321
09:00+17ссз0191100 3.5 101569
12:00+16ю129295 5.3 101681
15:00+22с125533 5.4 10151197
18:00+19ссз226979 0.3 101570
21:00+16ю22813 0.3 101727
9 августа, вт
вт900:00+15ю32760 0.0 101630
03:00+15ю32720 0.0 101626
06:00+16ююв22690 0.0 101733
09:00+23св23400 0.0 10151236
12:00+26св433510 0.0 10142039
15:00+26св333954 0.0 10142013
18:00+23всв14558 0.0 1014173
21:00+18ю32660 0.0 101536
10 августа, ср
ср1000:00+17ю33660 0.0 101436
03:00+17ю33680 0.0 101339
06:00+17ю33690 0.0 101350
09:00+25ссв12450 0.0 1012919
12:00+29св23340 0.0 10092055
15:00+30в23323 0.0 10082166
18:00+26юв125330 0.1 100876
21:00+18ю337978 1.0 101139
11 августа, чт
чт1100:00+18ю32741 0.3 101027
03:00+18ю33710 0.3 101031
06:00+19ю32670 0.0 101033
09:00+26ссв22460 0.0 1009691
12:00+30с33370 0.0 10081401
15:00+31ссз22340 0.0 10071685
18:00+27сз11580 0.2 100918
21:00+20ю32810 1.1 101134
12 августа, пт
пт1200:00+20ю32770 0.3 101126
03:00+20ю22710 0.3 101121
06:00+20ю11680 0.0 101218
09:00+26с22530 0.0 1012773
12:00+30с33443 0.0 10111580
15:00+31ссз223810 0.0 10101835
18:00+25с01690 0.8 101113
21:00+20ю32830 2.6 101331